Regional Weather Roundup
Issued by NWS

Home | Current Version | Previous Version | Text Only | Print | Product List | Glossary On
Versions: 1 2 3 4 5 6 7 8 9 10 11 12 13 14 15 16 17 18 19 20 21 22 23 24 25 26 27 28 29 30 31 32 33 34 35 36 37 38 39 40 41 42 43 44 45 46 47 48 49 50
000
ASUS46 KLOX 310812
RWRCA

SOUTHERN CALIFORNIA WEATHER ROUNDUP
NATIONAL WEATHER SERVICE OXNARD CALIFORNIA
100 AM PDT SUN AUG 31 2014

NOTE: "FAIR" INDICATES FEW OR NO CLOUDS BELOW 12,000 FEET WITH NO
SIGNIFICANT WEATHER AND/OR OBSTRUCTIONS TO VISIBILITY.

  -  STATIONS PRECEEDED BY AN ASTERISK (*) ARE NOT NWS OR FAA
     STATIONS AND ARE NOT SUBJECT TO NWS AND FAA QUALITY CONTROL.

CAZ041-042-087-310900-
LA AND ORANGE COUNTY COASTAL AREAS


CITY           SKY/WX    TMP DP  RH WIND       PRES   REMARKS
L.A. DOWNTOWN  CLEAR     71  64  78 CALM      29.77S
L.A. AIRPORT   CLEAR     70  66  87 CALM      29.78S
LONG BEACH     CLEAR     69  67  93 SE5       29.78R

CITY           SKY/WX    TMP DP  RH WIND       PRES   REMARKS
AVALON           N/A     64 N/A N/A MISG        N/A
FULLERTON      CLEAR     71  66  84 S3        29.77S
HAWTHORNE      CLEAR     71  67  87 CALM      29.78S
*LEO CARRILLO    N/A     66  63  89 N5          N/A
*LOS ALAMITOS  FAIR      69  67  93 S2        29.78S
*REDONDO BEACH   N/A     68  65  89 CALM      29.77S
SANTA ANA      CLEAR     73  67  81 SW5       29.78R
STA MONICA APT CLEAR     69  64  84 CALM      29.78S
*UCLA            N/A     68  57  68 N2        29.76S

$$

CAZ547-548-048-310900-
LA COUNTY VALLEYS AND INLAND EMPIRE


CITY           SKY/WX    TMP DP  RH WIND       PRES   REMARKS
BURBANK        PTCLDY    75  58  55 E7        29.79R
VAN NUYS       PTCLDY    75  55  49 SE3       29.78S

CITY           SKY/WX    TMP DP  RH WIND       PRES   REMARKS
CORONA AIRPORT SUNNY     71  63  76 W5        29.79S
*CHATSWORTH      N/A     73  59  61 CALM      29.73S
CHINO          CLEAR     69  60  73 CALM      29.80S
MARCH AFB      CLEAR     70  48  46 W5        29.83S
ONTARIO        PTCLDY    75  61  61 CALM      29.80R
*PASADENA        N/A     73  64  73 CALM        N/A
RIVERSIDE      CLEAR     76  56  49 CALM      29.80R
SAN BERNARDINO NOT AVBL
*SAN RAFAEL HI   N/A     72  45  37 CALM        N/A
*SAUGUS          N/A     84  31  15 N8G28       N/A
*WHITEMAN AP   NOT AVBL
*WHITTIER HILL   N/A     67  66  96 SE5         N/A
*WOODLAND HILL   N/A     70  59  68 E1          N/A

$$

CAZ054-055-310900-
LA AND SAN BERNARDINO COUNTY MOUNTAINS


CITY           SKY/WX    TMP DP  RH WIND       PRES   REMARKS
*ACTON           N/A     72  29  20 NW3         N/A
*BIG BEAR AIRP SUNNY     54  34  47 CALM      30.19S
*BIG PINES       N/A     66  25  21 CALM        N/A
MT WILSON NWS    N/A     70  19  14 N6G13       N/A
SANDBERG       MOCLDY    74  33  22 N28G37    30.05S
*WARM SPRINGS    N/A     75  31  20 W16G30      N/A

$$

CAZ028-029-059-060-099-310900-
ANTELOPE VALLEY AND SURROUNDING AREAS


CITY           SKY/WX    TMP DP  RH WIND       PRES   REMARKS
LANCASTER      MOCLDY    79  35  20 W16       29.88S
PALMDALE       MOCLDY    75  29  18 W9        29.90S
*POPPY PARK      N/A     80  35  20 W21G35      N/A

CITY           SKY/WX    TMP DP  RH WIND       PRES   REMARKS
29 PALMS       PTCLDY    85  34  16 N6        29.88R
BARSTOW/DAGGET MOCLDY    88  18   7 SW20      29.78S
BISHOP         CLEAR     63  27  25 NW8       29.93S
CHINA LAKE     PTCLDY    86  25  11 S6        29.75S
EDWARDS AFB    MOCLDY    80  30  16 SW21G29   29.84F
MOJAVE         FAIR      79  39  24 SW25G36   29.88S
NEEDLES        MOCLDY    99  39  12 SW13      29.68R HX  94
VICTORVILLE    MOCLDY    81  21  11 W14       29.88S

$$

CAZ039-040-310900-
VENTURA AND SANTA BARBARA COUNTY COAST


CITY           SKY/WX    TMP DP  RH WIND       PRES   REMARKS
CAMARILLO      PTCLDY    71  60  68 E5        29.76F
NWS OXNARD       N/A     67  60  79 CALM      29.76F
OXNARD AIRPORT PTCLDY    68  61  78 CALM      29.76S
*POINT MUGU    PTCLDY    67  62  84 CALM      29.77S
SBA APT/GOLETA PTCLDY    66  61  84 CALM      29.76S
*VENTURA         N/A     67  59  74 CALM      29.81S

$$

CAZ044-045-310900-
VENTURA COUNTY VALLEYS


CITY           SKY/WX    TMP DP  RH WIND       PRES   REMARKS
*SIMI VALLEY     N/A     69  59  70 CALM      29.71S
*OJAI            N/A     65  57  75 CALM      29.71S
*FILLMORE        N/A     66  59  79 CALM      29.67S

$$

CAZ053-310900-
VENTURA COUNTY MOUNTAINS


CITY           SKY/WX    TMP DP  RH WIND       PRES   REMARKS
*LOCKWOOD VLY    N/A     57  25  28 MISG        N/A
*ROSE VALLEY     N/A     70  39  32 MISG        N/A

$$

CAZ034-035-036-310900-
CENTRAL COAST AND SANTA YNEZ VALLEY


CITY           SKY/WX    TMP DP  RH WIND       PRES   REMARKS
SAN LUIS OBISP PTCLDY    61  55  81 CALM      29.86S
SANTA MARIA    PTCLDY    64  55  72 CALM      29.87R

CITY           SKY/WX    TMP DP  RH WIND       PRES   REMARKS
*CAL POLY SLO    N/A     61  57  88 CALM        N/A
*LOMPOC        PTCLDY    61  55  82 W3        29.87S
*PISMO BEACH     N/A     62  56  81 CALM      29.86S
*SANTA YNEZ    FAIR      59  54  82 CALM      29.87S

$$

CAZ037-038-051-310900-
SAN LUIS OBISPO COUNTY INTERIOR AND CUYAMA VALLEY


CITY           SKY/WX    TMP DP  RH WIND       PRES   REMARKS
*CUYAMA          N/A     73  37  26 SE3       29.80S
PASO ROBLES    CLEAR     70  50  49 NW8       29.89S

$$

CAZ032-033-061-310900-
SOUTHERN DESERTS


CITY           SKY/WX    TMP DP  RH WIND       PRES   REMARKS
BLYTHE         CLEAR     92  46  20 S8        29.68F
IMPERIAL       CLEAR     90  54  29 VRB3      29.64S
PALM SPRINGS   CLEAR     90  49  24 E3        29.69S
THERMAL        CLEAR     78  53  41 SW3       29.63R

$$

ELSEWHERE ACROSS THE WESTERN UNITED STATES AND MEXICO


CITY           SKY/WX    TMP DP  RH WIND       PRES   REMARKS
DENVER, CO     PTCLDY    58  47  66 S10       29.94F
GRAND CANYON,    N/A    N/A N/A N/A MISG        N/A
HONOLULU, HI   PTCLDY    81  66  61 E6        29.97R
KAHULUI, MAUI  CLEAR     73  66  78 CALM      29.98R
LAKE TAHOE, CA CLEAR     51  29  42 CALM      30.13R
LAS VEGAS, NV  PTCLDY    90  34  13 S16       29.68S
MAMMOTH LAKES, FAIR      57  23  26 S5        30.17S
MEXICO CITY, M CLOUDY    57  55  94 W5        30.29F
PHOENIX, AZ    CLEAR     95  45  17 NW9       29.75R HX  91
PORTLAND, OR   MOCLDY    59  52  77 CALM      30.03R
RENO, NV       PTCLDY    70  33  25 NW13      30.02S
SALT LAKE CITY CLOUDY    67  50  54 W6        29.82F
SAN DIEGO, CA  CLOUDY    70  66  88 S7        29.81R
SAN FRANCISCO, PTCLDY    64  60  87 W17       29.90R
SAN JOSE, CA   CLEAR     63  57  81 W5        29.91R
SEATTLE, WA    CLOUDY    59  55  87 S7        30.00R
TIJUANA, MEX   CLEAR     68  61  77 N5        29.83R

$$

STATION/POSITION TIME  TEMP    WIND        PRES    VSBY  WAVE
                       AIR SEA DIR/SP/G                  HT/PER
                 (UTC) (F)     (DEG/KT/KT) (MB)    (MI)  (FT/S)
POINT ARGUELLO B NOT AVBL
WEST SANTA BARBA 0800   62 60  320/ 21/ 25 1008.3R         6/ 8
POINT CONCEPTION NOT AVBL
EAST SANTA BARBA 0700   69 68  240/  6/  8 1008.1R
SANTA MONICA BAY 0800   70 72   90/  6/  6 1007.6S         3/ 7


USA.gov is the U.S. government's official web portal to all federal, state and local government web resources and services.